Location: *
(51.4660°N, 0.3360°W)
Time: 06:40:31
(UTC+00:00)

GEOS 3 Rocket - Pass Details

Date: 19 September 2019
Orbit: 790 x 829 km, 115.0° (Epoch: 17 October)

Event Time Altitude Azimuth Distance (km) Brightness Sun altitude
Exits shadow 19:01:21 - 146° (SE) 3,038 6.2 -9.1°
Reaches altitude 10° 19:03:03 10° 148° (SSE) 2,350 5.6 -9.4°
Maximum altitude 19:08:06 64° 231° (SW) 874 4.0 -10.2°
Drops below altitude 10° 19:13:12 10° 313° (NW) 2,371 7.1 -10.9°
Sets 19:15:32 0° 316° (NW) 3,309 7.9 -11.3°
